When you browse on this site, cookies collect data to enhance your experience and personalize the content and advertising you see.
Visit our Privacy Policy to learn more. By continuing to use the site, you agree to this use of cookies and data.
  • In Romania
  • List of Countries
  • For 7 days
  • Water Temperature
  • Satellite Maps
  • Weather Map
  • Weather Widgets
  • user-avatar
    Login

    Hourly Weather Huánuco

    Today, 25 May, Saturday

    Time Temperature Precipitation Wind Pressure Humidity
    00:00 +13°C° 0.1 mm 1 mps 596 mmHg 88%
    01:00 +13°C° 0.1 mm 1 mps 596 mmHg 87%
    02:00 +12°C° 0.1 mm 1 mps 596 mmHg 86%
    03:00 +11°C° 0.1 mm 0 mps 596 mmHg 85%
    04:00 +11°C° 0.1 mm 0 mps 596 mmHg 84%
    05:00 +12°C° 0.1 mm 0 mps 596 mmHg 82%
    06:00 +13°C° 0.1 mm 0 mps 597 mmHg 80%
    07:00 +14°C° 0.1 mm 0 mps 598 mmHg 77%
    08:00 +18°C° 0.3 mm 1 mps 599 mmHg 70%
    09:00 +19°C° 0.3 mm 2 mps 600 mmHg 62%
    10:00 +21°C° 0.3 mm 2 mps 601 mmHg 54%
    11:00 +22°C° 0.3 mm 3 mps 600 mmHg 54%
    12:00 +22°C° 0.3 mm 3 mps 600 mmHg 54%
    13:00 +23°C° 0.3 mm 4 mps 600 mmHg 54%
    14:00 +22°C° 0.2 mm 3 mps 599 mmHg 57%
    15:00 +22°C° 0.2 mm 3 mps 599 mmHg 60%
    16:00 +21°C° 0.2 mm 3 mps 598 mmHg 63%
    17:00 +19°C° 0.2 mm 2 mps 597 mmHg 73%
    18:00 +18°C° 0.2 mm 1 mps 597 mmHg 83%
    19:00 +13°C° 0.2 mm 0 mps 596 mmHg 93%
    20:00 +14°C° 0.1 mm 1 mps 596 mmHg 92%
    21:00 +14°C° 0.1 mm 1 mps 597 mmHg 91%
    22:00 +14°C° 0.1 mm 1 mps 597 mmHg 89%
    23:00 +14°C° 0.1 mm 1 mps 597 mmHg 88%

    Tomorrow, 26 May, Sunday

    Time Temperature Precipitation Wind Pressure Humidity
    00:00 +14°C° 0.1 mm 1 mps 597 mmHg 88%
    01:00 +14°C° 0.1 mm 1 mps 597 mmHg 87%
    02:00 +14°C° 0.1 mm 1 mps 597 mmHg 85%
    03:00 +14°C° 0.1 mm 1 mps 596 mmHg 83%
    04:00 +14°C° 0.1 mm 1 mps 596 mmHg 82%
    05:00 +14°C° 0.1 mm 1 mps 597 mmHg 79%
    06:00 +15°C° 0.1 mm 1 mps 597 mmHg 76%
    07:00 +16°C° 0.1 mm 1 mps 598 mmHg 73%
    08:00 +19°C° 0.1 mm 1 mps 599 mmHg 64%
    09:00 +21°C° 0.1 mm 1 mps 600 mmHg 55%
    10:00 +23°C° 0.1 mm 1 mps 601 mmHg 46%
    11:00 +24°C° 0.1 mm 2 mps 601 mmHg 46%
    12:00 +25°C° 0.1 mm 3 mps 600 mmHg 45%
    13:00 +25°C° 0.1 mm 3 mps 600 mmHg 45%
    14:00 +25°C° 0.2 mm 3 mps 599 mmHg 48%
    15:00 +24°C° 0.2 mm 3 mps 598 mmHg 51%
    16:00 +24°C° 0.2 mm 3 mps 598 mmHg 54%
    17:00 +20°C° 0.2 mm 2 mps 597 mmHg 66%
    18:00 +17°C° 0.2 mm 2 mps 596 mmHg 78%
    19:00 +15°C° 0.2 mm 1 mps 595 mmHg 90%
    20:00 +15°C° 0.2 mm 1 mps 596 mmHg 90%
    21:00 +14°C° 0.2 mm 0 mps 597 mmHg 91%
    22:00 +14°C° 0.2 mm 0 mps 597 mmHg 91%
    23:00 +15°C° 0.1 mm 1 mps 597 mmHg 90%

    Day after tomorrow, 27 May, Monday

    Time Temperature Precipitation Wind Pressure Humidity
    00:00 +14°C° 0.1 mm 1 mps 597 mmHg 89%
    01:00 +14°C° 0.1 mm 1 mps 597 mmHg 87%
    02:00 +14°C° 0 mm 1 mps 597 mmHg 86%
    03:00 +14°C° 0 mm 1 mps 596 mmHg 85%
    04:00 +14°C° 0 mm 1 mps 596 mmHg 84%
    05:00 +15°C° 0 mm 1 mps 596 mmHg 81%
    06:00 +15°C° 0 mm 1 mps 597 mmHg 78%
    07:00 +16°C° 0 mm 1 mps 597 mmHg 75%
    08:00 +19°C° 0 mm 1 mps 598 mmHg 65%
    09:00 +21°C° 0 mm 2 mps 600 mmHg 55%
    10:00 +24°C° 0 mm 2 mps 601 mmHg 45%
    11:00 +24°C° 0.1 mm 2 mps 600 mmHg 45%
    12:00 +25°C° 0.1 mm 3 mps 600 mmHg 45%
    13:00 +26°C° 0.1 mm 3 mps 599 mmHg 45%
    14:00 +25°C° 0.2 mm 3 mps 598 mmHg 48%
    15:00 +25°C° 0.2 mm 3 mps 598 mmHg 51%
    16:00 +24°C° 0.2 mm 3 mps 597 mmHg 54%
    17:00 +20°C° 0.2 mm 2 mps 596 mmHg 65%
    18:00 +17°C° 0.2 mm 2 mps 596 mmHg 77%
    19:00 +15°C° 0.2 mm 1 mps 595 mmHg 89%
    20:00 +14°C° 0.2 mm 1 mps 595 mmHg 89%
    21:00 +14°C° 0.2 mm 1 mps 596 mmHg 89%
    22:00 +13°C° 0.2 mm 0 mps 596 mmHg 89%
    23:00 +14°C° 0.1 mm 1 mps 596 mmHg 88%

    28 May, Tuesday

    Time Temperature Precipitation Wind Pressure Humidity
    00:00 +14°C° 0.1 mm 1 mps 596 mmHg 87%
    01:00 +14°C° 0.1 mm 1 mps 596 mmHg 85%
    02:00 +14°C° 0.1 mm 1 mps 596 mmHg 83%
    03:00 +14°C° 0.1 mm 2 mps 596 mmHg 81%
    04:00 +14°C° 0.1 mm 2 mps 596 mmHg 79%
    05:00 +15°C° 0.1 mm 1 mps 596 mmHg 76%
    06:00 +15°C° 0.1 mm 1 mps 597 mmHg 74%
    07:00 +16°C° 0.1 mm 1 mps 597 mmHg 71%
    08:00 +19°C° 0.2 mm 1 mps 598 mmHg 63%
    09:00 +20°C° 0.2 mm 2 mps 599 mmHg 55%
    10:00 +23°C° 0.2 mm 2 mps 600 mmHg 47%
    11:00 +24°C° 0.3 mm 2 mps 600 mmHg 47%
    12:00 +24°C° 0.3 mm 3 mps 599 mmHg 46%
    13:00 +25°C° 0.3 mm 3 mps 599 mmHg 46%
    14:00 +24°C° 0.4 mm 3 mps 598 mmHg 49%
    15:00 +24°C° 0.4 mm 3 mps 598 mmHg 52%
    16:00 +22°C° 0.4 mm 3 mps 597 mmHg 55%
    17:00 +20°C° 0.3 mm 2 mps 597 mmHg 65%
    18:00 +17°C° 0.3 mm 2 mps 596 mmHg 74%
    19:00 +15°C° 0.3 mm 1 mps 595 mmHg 83%
    20:00 +15°C° 0.2 mm 1 mps 596 mmHg 83%
    21:00 +14°C° 0.2 mm 1 mps 596 mmHg 82%
    22:00 +14°C° 0.2 mm 1 mps 596 mmHg 81%
    23:00 +14°C° 0.1 mm 1 mps 596 mmHg 81%

    29 May, Wednesday

    Time Temperature Precipitation Wind Pressure Humidity
    00:00 +13°C° 0.1 mm 1 mps 596 mmHg 81%
    01:00 +13°C° 0.1 mm 1 mps 596 mmHg 81%
    02:00 +13°C° 0 mm 1 mps 595 mmHg 80%
    03:00 +13°C° 0 mm 1 mps 595 mmHg 78%
    04:00 +13°C° 0 mm 1 mps 595 mmHg 77%
    05:00 +14°C° 0 mm 1 mps 596 mmHg 75%
    06:00 +15°C° 0 mm 1 mps 597 mmHg 72%
    07:00 +16°C° 0 mm 2 mps 597 mmHg 69%
    08:00 +18°C° 0 mm 2 mps 598 mmHg 60%
    09:00 +21°C° 0 mm 2 mps 600 mmHg 50%
    10:00 +25°C° 0 mm 2 mps 601 mmHg 40%
    11:00 +25°C° 0 mm 3 mps 600 mmHg 41%
    12:00 +26°C° 0 mm 3 mps 599 mmHg 41%
    13:00 +26°C° 0 mm 4 mps 599 mmHg 42%
    14:00 +25°C° 0.1 mm 4 mps 598 mmHg 45%
    15:00 +25°C° 0.1 mm 4 mps 598 mmHg 48%
    16:00 +24°C° 0.1 mm 3 mps 597 mmHg 51%
    17:00 +20°C° 0.1 mm 3 mps 596 mmHg 62%
    18:00 +17°C° 0.1 mm 2 mps 596 mmHg 73%
    19:00 +14°C° 0.1 mm 1 mps 595 mmHg 85%
    20:00 +14°C° 0 mm 1 mps 596 mmHg 84%
    21:00 +14°C° 0 mm 1 mps 596 mmHg 82%
    22:00 +14°C° 0 mm 1 mps 596 mmHg 81%
    23:00 +14°C° 0 mm 1 mps 596 mmHg 80%

    30 May, Thursday

    Time Temperature Precipitation Wind Pressure Humidity
    00:00 +14°C° 0 mm 1 mps 596 mmHg 79%
    01:00 +14°C° 0 mm 1 mps 596 mmHg 77%
    02:00 +14°C° 0 mm 1 mps 596 mmHg 77%
    03:00 +14°C° 0 mm 1 mps 595 mmHg 77%
    04:00 +13°C° 0 mm 2 mps 595 mmHg 77%
    05:00 +14°C° 0 mm 2 mps 596 mmHg 73%
    06:00 +15°C° 0 mm 2 mps 597 mmHg 70%
    07:00 +16°C° 0 mm 2 mps 598 mmHg 67%
    08:00 +19°C° 0 mm 2 mps 599 mmHg 58%
    09:00 +21°C° 0 mm 2 mps 600 mmHg 48%
    10:00 +25°C° 0 mm 2 mps 601 mmHg 39%
    11:00 +26°C° 0 mm 2 mps 600 mmHg 39%
    12:00 +26°C° 0 mm 3 mps 600 mmHg 40%
    13:00 +27°C° 0 mm 4 mps 599 mmHg 40%
    14:00 +26°C° 0.1 mm 4 mps 599 mmHg 45%
    15:00 +25°C° 0.1 mm 4 mps 598 mmHg 50%
    16:00 +24°C° 0.1 mm 3 mps 597 mmHg 54%
    17:00 +21°C° 0 mm 3 mps 597 mmHg 65%
    18:00 +18°C° 0 mm 2 mps 596 mmHg 77%
    19:00 +15°C° 0 mm 1 mps 595 mmHg 88%
    20:00 +15°C° 0.1 mm 1 mps 596 mmHg 87%
    21:00 +14°C° 0.1 mm 0 mps 596 mmHg 85%
    22:00 +14°C° 0.1 mm 0 mps 597 mmHg 84%
    23:00 +13°C° 0.1 mm 0 mps 596 mmHg 84%
    Show more